TimeCDT,TemperatureF,Dew PointF,Humidity,Sea Level PressureIn,VisibilityMPH,Wind Direction,Wind SpeedMPH,Gust SpeedMPH,PrecipitationIn,Events,Conditions,WindDirDegrees,DateUTC
12:52 AM,53.1,48.9,86,29.93,10.0,Calm,Calm,-,N/A,,Clear,0,2013-09-30 05:52:00
1:52 AM,53.1,48.0,83,29.90,10.0,South,4.6,-,N/A,,Clear,180,2013-09-30 06:52:00
2:52 AM,48.9,46.9,93,29.90,10.0,Calm,Calm,-,N/A,,Clear,0,2013-09-30 07:52:00
3:52 AM,46.9,46.0,97,29.89,10.0,Calm,Calm,-,N/A,,Clear,0,2013-09-30 08:52:00
4:52 AM,48.0,46.9,96,29.89,10.0,Calm,Calm,-,N/A,,Clear,0,2013-09-30 09:52:00
5:52 AM,46.0,45.0,96,29.89,10.0,Calm,Calm,-,N/A,,Clear,0,2013-09-30 10:52:00
6:52 AM,46.0,45.0,96,29.89,10.0,Calm,Calm,-,N/A,,Clear,0,2013-09-30 11:52:00
7:52 AM,48.0,46.9,96,29.89,10.0,Calm,Calm,-,N/A,,Clear,0,2013-09-30 12:52:00
8:52 AM,55.0,51.1,86,29.89,10.0,Calm,Calm,-,N/A,,Clear,0,2013-09-30 13:52:00
9:52 AM,64.0,53.1,67,29.88,10.0,SSW,11.5,-,N/A,,Clear,210,2013-09-30 14:52:00
10:52 AM,70.0,53.1,55,29.87,10.0,SW,9.2,-,N/A,,Clear,220,2013-09-30 15:52:00
11:52 AM,75.0,52.0,44,29.85,10.0,SSW,10.4,-,N/A,,Clear,210,2013-09-30 16:52:00
12:52 PM,78.1,51.1,39,29.84,10.0,SSW,10.4,-,N/A,,Clear,200,2013-09-30 17:52:00
1:52 PM,80.1,50.0,35,29.81,10.0,SSW,9.2,-,N/A,,Clear,200,2013-09-30 18:52:00
2:52 PM,81.0,51.1,35,29.79,10.0,South,10.4,-,N/A,,Clear,190,2013-09-30 19:52:00
3:52 PM,82.0,51.1,34,29.78,10.0,South,11.5,-,N/A,,Clear,180,2013-09-30 20:52:00
4:52 PM,80.1,51.1,36,29.78,10.0,South,8.1,-,N/A,,Clear,190,2013-09-30 21:52:00
5:52 PM,79.0,53.1,40,29.78,10.0,South,9.2,-,N/A,,Clear,170,2013-09-30 22:52:00
6:52 PM,75.0,52.0,44,29.78,10.0,South,5.8,-,N/A,,Clear,180,2013-09-30 23:52:00
7:52 PM,68.0,54.0,61,29.79,10.0,South,3.5,-,N/A,,Clear,170,2013-10-01 00:52:00
8:52 PM,66.9,53.1,61,29.79,10.0,South,4.6,-,N/A,,Clear,180,2013-10-01 01:52:00
9:52 PM,64.0,53.1,67,29.79,10.0,SSW,5.8,-,N/A,,Clear,200,2013-10-01 02:52:00
10:52 PM,62.1,53.1,72,29.81,10.0,South,5.8,-,N/A,,Clear,190,2013-10-01 03:52:00
11:52 PM,62.1,53.1,72,29.81,10.0,SSW,5.8,-,N/A,,Clear,210,2013-10-01 04:52:00